EW6077 Weather Reports


Display with metric or nautical units.
time (UTC)temp
F
wind
direction
speed
MPH
gust
MPH
rain 1hr
in
rain 24hr
in
rain mn
in
humidity
%
barometer
mb
20181217041726 14 98 0.0 0.0 0.00 0.00 0.00 92 1024.6
20181217040317 13 105 0.0 0.0 0.00 0.00 0.00 91 1024.8
20181217034742 12 105 0.0 0.0 0.00 0.00 0.00 90 1024.9
20181217033158 13 105 0.0 0.0 0.00 0.00 0.00 90 1025.0
20181217031636 13 105 0.0 0.0 0.00 0.00 0.00 89 1024.7
20181217030135 14 106 0.0 0.0 0.00 0.00 0.00 90 1024.8
20181217024632 14 89 0.0 0.0 0.00 0.00 0.00 91 1024.8
20181217023140 14 86 0.0 0.0 0.00 0.00 0.00 91 1024.8
20181217021633 12 86 0.0 0.0 0.00 0.00 0.00 91 1024.8
20181217020140 12 86 0.0 0.0 0.00 0.00 0.00 90 1024.9
20181217014641 12 86 0.0 0.0 0.00 0.00 0.00 89 1024.6
20181217013129 12 80 0.0 0.0 0.00 0.00 0.00 89 1024.8
20181217011617 13 75 0.0 0.0 0.00 0.00 0.00 87 1024.6
20181217010124 14 340 0.0 0.0 0.00 0.00 0.00 88 1024.5
20181217004616 15 340 0.0 0.0 0.00 0.00 0.00 87 1024.7
20181217003136 16 340 0.0 0.0 0.00 0.00 0.00 88 1024.5
20181217001612 17 340 0.0 0.0 0.00 0.00 0.00 87 1024.5
20181217000146 17 340 0.0 0.0 0.00 0.00 0.00 87 1024.3
20181216234544 18 340 0.0 0.0 0.00 0.00 0.00 85 1024.6
20181216233106 20 317 0.0 0.0 0.00 0.00 0.00 83 1024.8
20181216231544 21 317 0.0 0.0 0.00 0.00 0.00 83 1024.9
20181216230054 21 294 0.0 0.0 0.00 0.00 0.00 83 1024.8
20181216224557 21 288 0.0 0.0 0.00 0.00 0.00 83 1024.7
20181216223054 21 294 0.0 0.0 0.00 0.00 0.00 83 1024.4
20181216221554 21 292 0.0 0.0 0.00 0.00 0.00 82 1024.5
20181216220038 22 282 0.0 0.0 0.00 0.00 0.00 82 1024.6
20181216214546 22 292 0.0 0.0 0.00 0.00 0.00 81 1024.6
20181216213041 22 293 0.0 0.0 0.00 0.00 0.00 81 1024.7
20181216211600 22 293 0.0 0.0 0.00 0.00 0.00 80 1024.6
20181216210119 22 263 0.0 0.0 0.00 0.00 0.00 81 1024.5
20181216204557 22 296 0.0 0.0 0.00 0.00 0.00 81 1024.3
20181216203042 22 285 0.0 0.0 0.00 0.00 0.00 81 1024.5
20181216201601 22 281 5.0 0.0 0.00 0.00 0.00 80 1024.8
20181216200031 22 284 5.0 0.0 0.00 0.00 0.00 79 1024.8
20181216194620 22 275 6.0 0.0 0.00 0.00 0.00 79 1025.0
20181216193054 22 289 5.0 0.0 0.00 0.00 0.00 79 1025.1
20181216191532 22 288 4.0 0.0 0.00 0.00 0.00 78 1024.9
20181216190043 21 265 4.0 0.0 0.00 0.00 0.00 79 1024.9
20181216184543 21 275 2.0 0.0 0.00 0.00 0.00 80 1024.9
20181216183034 21 279 3.0 0.0 0.00 0.00 0.00 80 1024.7
20181216181555 20 277 6.0 0.0 0.00 0.00 0.00 80 1024.7
20181216180022 20 291 5.0 0.0 0.00 0.00 0.00 80 1024.6
20181216174549 20 282 6.0 0.0 0.00 0.00 0.00 81 1024.3
20181216173027 20 318 6.0 0.0 0.00 0.00 0.00 81 1024.0
20181216171530 20 281 6.0 0.0 0.00 0.00 0.00 81 1024.2
20181216170039 19 338 7.0 0.0 0.00 0.00 0.00 81 1024.0
20181216164548 19 302 5.0 0.0 0.00 0.00 0.00 81 1023.8
20181216163013 19 281 6.0 0.0 0.00 0.00 0.00 81 1023.5
20181216161531 19 273 6.0 0.0 0.00 0.00 0.00 82 1023.4
20181216160009 19 292 5.0 0.0 0.00 0.00 0.00 82 1023.4
20181216154639 18 303 5.0 0.0 0.00 0.00 0.00 82 1022.9
20181216153205 18 310 5.0 0.0 0.00 0.00 0.00 83 1022.5
20181216151639 18 288 4.0 0.0 0.00 0.00 0.00 83 1022.0
20181216150214 18 288 5.0 0.0 0.00 0.00 0.00 83 1021.8
20181216144606 18 283 6.0 0.0 0.00 0.00 0.00 83 1021.5
20181216143131 19 294 8.0 0.0 0.00 0.00 0.00 82 1021.4
20181216141602 20 269 8.0 0.0 0.00 0.00 0.00 82 1021.2
20181216140121 20 273 10.0 0.0 0.00 0.00 0.00 81 1021.4
20181216134548 21 286 10.0 0.0 0.00 0.00 0.00 81 1021.3
20181216133103 21 254 10.0 0.0 0.00 0.00 0.00 80 1021.0
20181216131607 21 277 9.0 0.0 0.00 0.00 0.00 80 1020.9
20181216130056 21 288 7.0 0.0 0.00 0.00 0.00 80 1020.6
20181216124611 22 283 8.0 0.0 0.00 0.00 0.00 79 1020.3
20181216123131 22 270 9.0 0.0 0.00 0.00 0.00 79 1020.3
20181216121540 23 302 10.0 0.0 0.00 0.00 0.00 78 1020.1
20181216120034 23 288 10.0 0.0 0.00 0.00 0.00 78 1020.0
20181216114546 23 283 9.0 0.0 0.00 0.00 0.00 78 1019.7
20181216113033 24 254 10.0 0.0 0.00 0.00 0.00 78 1019.5
20181216111519 24 296 10.0 0.0 0.00 0.00 0.00 78 1019.4
20181216110014 24 287 10.0 0.0 0.00 0.00 0.00 78 1019.2
20181216104509 24 263 9.0 0.0 0.00 0.00 0.00 77 1019.1
20181216103015 24 271 9.0 0.0 0.00 0.00 0.00 78 1019.1
20181216101524 24 312 9.0 0.0 0.00 0.00 0.00 78 1019.2
20181216100004 25 277 9.0 0.0 0.00 0.00 0.00 78 1018.8
20181216094723 25 306 9.0 0.0 0.00 0.00 0.00 79 1018.8
20181216093133 24 285 8.0 0.0 0.00 0.00 0.00 79 1018.8
20181216091742 25 293 8.0 0.0 0.00 0.00 0.00 79 1018.7
20181216090131 25 306 8.0 0.0 0.00 0.00 0.00 79 1018.4
20181216084600 26 296 8.0 0.0 0.00 0.00 0.00 79 1018.0
20181216083122 26 284 9.0 0.0 0.00 0.00 0.00 78 1017.5
20181216081614 26 271 9.0 0.0 0.00 0.00 0.00 79 1017.5
20181216080213 26 257 8.0 0.0 0.00 0.00 0.00 80 1017.4
20181216074606 27 296 9.0 0.0 0.00 0.00 0.00 81 1017.4
20181216073058 27 267 8.0 0.0 0.00 0.00 0.00 81 1017.2
20181216071607 27 283 9.0 0.0 0.00 0.00 0.00 81 1016.8
20181216070115 28 274 8.0 0.0 0.00 0.00 0.00 81 1016.7
20181216064625 28 286 9.0 0.0 0.00 0.00 0.00 82 1016.2
20181216063108 29 278 9.0 0.0 0.00 0.00 0.00 84 1016.3
20181216061625 29 264 9.0 0.0 0.00 0.00 0.00 85 1015.9
20181216060049 30 292 8.0 0.0 0.00 0.00 0.00 85 1015.7
20181216054535 30 302 9.0 0.0 0.00 0.00 0.01 83 1015.2
20181216053020 30 309 9.0 0.0 0.00 0.00 0.01 83 1014.7
20181216051522 30 284 8.0 0.0 0.00 0.00 0.01 83 1014.5
20181216050125 31 314 9.0 0.0 0.00 0.00 0.01 83 1014.2
20181216044512 31 277 11.0 0.0 0.00 0.00 0.01 83 1014.1